User: anonymous   Login
Location: Unspecified
(0.0000°N, 0.0000°E)
Time: 18:47:02
(UTC+00:00)
Language:

ATS 6 - Orbit

View from above orbital plane
View from above orbital plane
View from above satellite
View from above satellite

Ground track
Ground track

The orbit data is extracted from the following two-line orbital elements,

1  7318U 74039A   17145.47667318 -.00000145 +00000-0 +00000-0 0  9993
2  7318 009.6301 308.4238 0029332 218.9351 115.8626 01.01980922088249
Epoch (UTC): 25 May 2017 11:26:24
Eccentricity: 0.0029332
inclination: 9.6301°
perigee height: 35191 km
apogee height: 35436 km
right ascension of ascending node: 308.4238°
argument of perigee: 218.9351°
revolutions per day: 1.01980922
mean anomaly at epoch: 115.8626°
orbit number at epoch: 8824

The dashed part of the orbit path shows where the satellite is in the earth's shadow,  

DLR